Weather History for Lebanon, NH

Change the Weather History Date:

Saturday, February 16, 2013

  Actual Average Record
Temperature  
Mean Temperature 28 °F -  
Max Temperature 34 °F 32 °F 61 °F (2006)
Min Temperature 21 °F 12 °F -40 °F (1943)
Degree Days  
Heating Degree Days 36    
Moisture  
Dew Point 18 °F    
Average Humidity 64    
Maximum Humidity 89    
Minimum Humidity 37    
Precipitation  
Precipitation 0.00 in - - ()
Sea Level Pressure  
Sea Level Pressure 29.93 in    
Wind  
Wind Speed 4 mph (North)    
Max Wind Speed 15 mph    
Max Gust Speed 22 mph    
Visibility 8 miles    
Events Snow    
Averages and records for this station are not official NWS values.
T = Trace of Precipitation, MM = Missing Value Source: NWS Daily Summary

Daily Weather History Graph

Daily Weather History Graph

Search for Another Location

Airport:

Trip Planner

Search our weather history database for the weather conditions in past years. The results will help you decide how hot, cold, wet, or windy it might be!

Date:

Astronomy

Feb. 16, 2013 Rise Set
Actual Time 6:45 AM EST 5:21 PM EST
Civil Twilight 6:16 AM EST 5:50 PM EST
Nautical Twilight 5:43 AM EST 6:24 PM EST
Astronomical Twilight 5:09 AM EST 6:57 PM EST
Moon 9:43 AM EST (2/16) No Moon Set
Length of Visible Light 11h 33m
Length of Day
10h 35m
Waxing Crescent, 39% of the Moon is Illuminated
Feb 16
Waxing Crescent
Feb 17
First Quarter
Feb 25
Full
Mar 4
Last Quarter
Mar 11
New

Hourly Weather History & Observations

Time (EST) Temp. Windchill Dew Point Humidity Pressure Visibility Wind Dir Wind Speed Gust Speed Precip Events Conditions
12:53 AM 28.0 °F 24.2 °F 21.0 °F 75% 29.97 in 10.0 mi SSE 3.5 mph - N/A   Overcast
1:53 AM 30.9 °F 27.5 °F 21.0 °F 67% 29.97 in 10.0 mi WSW 3.5 mph - N/A   Overcast
2:53 AM 30.9 °F - 21.9 °F 69% 29.95 in 10.0 mi Calm Calm - N/A   Overcast
3:53 AM 30.0 °F - 23.0 °F 75% 29.95 in 7.0 mi Calm Calm - N/A   Overcast
4:53 AM 28.9 °F - 24.1 °F 82% 29.96 in 3.0 mi Calm Calm - 0.00 in Snow Light Snow
5:53 AM 28.0 °F - 24.1 °F 85% 29.95 in 4.0 mi Calm Calm - 0.00 in Snow Light Snow
6:53 AM 27.0 °F - 24.1 °F 89% 29.95 in 6.0 mi Calm Calm - 0.00 in   Overcast
7:53 AM 28.0 °F - 24.1 °F 85% 29.96 in 8.0 mi Calm Calm - N/A   Overcast
8:53 AM 30.0 °F - 25.0 °F 82% 29.96 in 7.0 mi Calm Calm - N/A   Overcast
9:20 AM 30.2 °F 24.3 °F 26.6 °F 86% 29.93 in 6.0 mi NNW 5.8 mph - N/A   Haze
9:28 AM 30.2 °F 24.3 °F 24.8 °F 80% 29.93 in 2.5 mi NNW 5.8 mph - 0.00 in Snow Light Snow
9:42 AM 30.2 °F 25.4 °F 24.8 °F 80% 29.93 in 4.0 mi NNW 4.6 mph - 0.00 in Snow Light Snow
9:50 AM 30.2 °F 26.7 °F 24.8 °F 80% 29.93 in 4.0 mi North 3.5 mph - 0.00 in Snow Light Snow
9:53 AM 30.0 °F 25.2 °F 25.0 °F 82% 29.96 in 4.0 mi NNE 4.6 mph - 0.00 in Snow Light Snow
10:19 AM 30.2 °F 25.4 °F 24.8 °F 80% 29.93 in 4.0 mi North 4.6 mph - 0.00 in Snow Light Snow
10:48 AM 30.2 °F 26.7 °F 23.0 °F 75% 29.92 in 10.0 mi Variable 3.5 mph - 0.00 in   Overcast
10:53 AM 30.9 °F 25.2 °F 21.9 °F 69% 29.96 in 10.0 mi North 5.8 mph - 0.00 in   Overcast
11:07 AM 32.0 °F 27.5 °F 21.2 °F 64% 29.92 in 10.0 mi Variable 4.6 mph - N/A   Overcast
11:31 AM 32.0 °F 28.7 °F 21.2 °F 64% 29.92 in 10.0 mi NNE 3.5 mph - N/A   Overcast
11:53 AM 32.0 °F 28.7 °F 19.9 °F 61% 29.93 in 10.0 mi Variable 3.5 mph - N/A   Mostly Cloudy
12:53 PM 33.1 °F 26.9 °F 19.0 °F 56% 29.92 in 10.0 mi North 6.9 mph - N/A   Overcast
1:53 PM 33.1 °F 27.7 °F 17.1 °F 52% 29.91 in 10.0 mi North 5.8 mph - N/A   Overcast
2:53 PM 34.0 °F 28.0 °F 14.0 °F 44% 29.89 in 10.0 mi NNW 6.9 mph - N/A   Overcast
3:53 PM 32.0 °F 26.4 °F 12.9 °F 45% 29.90 in 10.0 mi NNW 5.8 mph - N/A   Overcast
4:53 PM 30.9 °F 22.2 °F 12.9 °F 47% 29.89 in 10.0 mi North 10.4 mph - N/A   Scattered Clouds
5:53 PM 28.9 °F 19.2 °F 12.0 °F 49% 29.91 in 10.0 mi North 11.5 mph - N/A   Partly Cloudy
6:53 PM 28.0 °F 16.5 °F 8.1 °F 43% 29.93 in 10.0 mi North 15.0 mph 21.9 mph N/A   Scattered Clouds
7:53 PM 26.1 °F 14.5 °F 3.9 °F 39% 29.91 in 10.0 mi North 13.8 mph 21.9 mph N/A   Overcast
8:53 PM 25.0 °F 14.8 °F 1.9 °F 37% 29.91 in 10.0 mi North 10.4 mph - N/A   Overcast
9:53 PM 24.1 °F 17.0 °F 1.9 °F 38% 29.89 in 10.0 mi North 5.8 mph - N/A   Overcast
10:53 PM 23.0 °F 12.4 °F 1.0 °F 39% 29.88 in 10.0 mi North 10.4 mph 18.4 mph N/A   Overcast
11:53 PM 21.9 °F 14.5 °F 3.0 °F 44% 29.84 in 10.0 mi NNE 5.8 mph - N/A   Overcast